STARLINK-1778 (46683 NORAD) Tracking and Keplerian Element Data

This shows tracking and keplerian element data for the satellite.

Feedback or suggestion? Click here.




ElementValue
Catalog46683
NameSTARLINK-1778
Epoch Orbit179
Epoch Day17.91667824
Epoch Year2021
RAAN41.969
Inclination53.017
Eccentricity0.0001427
Argument of Perigee81.529
Mean Anonmoly152.7429
Mean Motion15.06349108
Decay Rate0.00058137
L11 46683U 20073P 21017.91667824 .00058137 00000-0 38951-2 0 9995
L22 46683 53.0170 41.9690 0001427 81.5290 152.7429 15.06349108 1797

Live tracking and technical data element details for STARLINK-1778 (NORAD 46683). STARLINK-1778 can be tracked NOW for your location showing map with azimuth and elevation plus other details from your city location.

Track the satellite on the map from your city or location and see movement details for azimuth, elevation, latitude, longitude, range, height, and movement on the map or in text.







IsCatalogInMostPopularTable: catalog: 46683, numindb: 29
Update: records affected: 1



GetName: 46683 STARLINK-1778

Hit Count: updated at: Tue, 19 Jan 2021 01:31:50 GMT